Preview of NWS' New Version of Forecast
This preview is not operational and should not be used for support decisions.

Regional Weather Roundup (RWR)

Issued by Philadelphia/Mt Holly (PHI)

                            
000
ASUS41 KPHI 180812
RWRPHI

REGIONAL WEATHER ROUNDUP
NATIONAL WEATHER SERVICE MOUNT HOLLY NJ
400 AM EDT WED SEP 18 2019

NOTE:  "FAIR" INDICATES FEW OR NO CLOUDS BELOW 12,000 FEET WITH NO
SIGNIFICANT WEATHER AND/OR OBSTRUCTIONS TO VISIBILITY.

 * = STATION DOES NOT REPORT PRECIPITATION (E.G. RAIN, SNOW, ETC.) 
        OR FOG.

NJZ015>026-180900-
SOUTHERN NEW JERSEY
  
CITY           SKY/WX    TMP DP  RH WIND       PRES   REMARKS
POMONA         FAIR      54  50  86 NW3       30.14S                  
WILDWOOD*      FAIR      55  53  93 CALM      30.14S                  
MILLVILLE      FAIR      53  50  89 CALM      30.15R                  
WRIGHTSTOWN    FAIR      53  50  92 CALM      30.15                   
MOUNT HOLLY    FAIR      52  50  93 CALM      30.16R                  
TRENTON        MOCLDY    55  47  74 N6        30.16S                  

$$
NJZ001>014-180900-
NORTHERN NEW JERSEY
  
CITY           SKY/WX    TMP DP  RH WIND       PRES   REMARKS
SUSSEX         FAIR      46  44  93 CALM      30.20S                  
ANDOVER*         N/A     51  48  89 NE5       30.20R                  
MORRISTOWN     FAIR      46  46 100 CALM      30.18R                  
NEWARK         FAIR      58  49  72 N8        30.17R                  
TETERBORO      FAIR      58  47  66 N5        30.17R                  
CALDWELL       FAIR      54  46  74 CALM      30.19R                  
SOMERVILLE     FAIR      49  47  93 CALM      30.16S                  
ALLAIRE*       MOCLDY    56  52  86 CALM      30.17R                  
TOMS RIVER*    MOCLDY    51  32  48 CALM      30.16S                  

$$
PAZ043-044-047-054-055-060>062-066>071-180900-
EASTERN PENNSYLVANIA
  
CITY           SKY/WX    TMP DP  RH WIND       PRES   REMARKS
PHILADELPHIA   FAIR      60  52  74 CALM      30.16S                  
NORTH PHILA    FAIR      58  48  69 CALM      30.17S                  
BLUE BELL*     FAIR      49  48  98 CALM      30.17R                  
DOYLESTOWN     FAIR      55  46  71 NE3       30.17R                  
QUAKERTOWN*    CLEAR     48  48 100 CALM      30.18S                  
PERKASIE*      FAIR      48  48 100 CALM      30.18S                  
POTTSTOWN      FAIR      49  49 100 CALM      30.19R                  
LANCASTER      FAIR      58  46  64 NE5       30.17R                  
COATESVILLE    FAIR      54  50  87 CALM      30.18S                  
WEST CHESTER   FAIR      54  50  87 CALM      30.17R                  
READING        FAIR      56  51  84 N3        30.16S                  
ALLENTOWN      FAIR      53  47  79 NE3       30.18R                  
QN CITY/ALNTWN FAIR      55  50  82 NE6       30.20R                  
MOUNT POCONO   FAIR      49  44  83 N7        30.21S                  
HAZLETON       FAIR      43  41  93 CALM      30.23S                  
LEHIGHTON      FAIR      43  43 100 CALM      30.21S                  
WILKES BARRE   FAIR      50  46  86 E6        30.21R                  

$$
DEZALL-MDZ008-012-015-019-020-180900-
DELAWARE AND EASTERN MARYLAND
  
CITY           SKY/WX    TMP DP  RH WIND       PRES   REMARKS
WILMINGTON     FAIR      56  55  97 NW3       30.16R                  
DOVER          FAIR      56  51  86 N3        30.14                   
CHESWOLD       SUNNY     52  52 100 CALM      30.14S                  
GEORGETOWN     FAIR      55  53  93 CALM      30.14R                  
EASTON         FAIR      57  54  89 N3        30.18R                  
STEVENSVILLE   FAIR      57  54  88 CALM      30.14S                  
PATUXENT       FAIR      65  54  67 E8        30.13R                  
OCEAN CITY     FAIR      67  54  63 NE9       30.11S                  
WALLOPS ISLAND FAIR      59  53  80 N8        30.11S                  
CAMBRIDGE      CLEAR     55  54  94 CALM      30.13S                  
SALISBURY      FAIR      54  51  90 CALM      30.12S                  

$$
PAZ001-021-NYZ056-072-MDZ011-DCZ001-180900-
OTHER NEARBY LOCATIONS
  
CITY           SKY/WX    TMP DP  RH WIND       PRES   REMARKS
HARRISBURG     FAIR      58  49  72 CALM      30.17R                  
STATE COLLEGE  FAIR      53  50  92 CALM      30.22                   
WILLIAMSPORT   FAIR      52  49  89 NW3       30.20S                  
BINGHAMTON     FAIR      48  43  82 E5        30.23R                  
NEW YORK CITY  FAIR      61  54  77 NE6       30.20R                  
BALTIMORE      FAIR      57  55  93 CALM      30.15R                  
WASHINGTON DC  FAIR      65  59  81 E6        30.14S                  

$$